Theta_e
311 310 310 310 309 308 307 308 309 309 310 310 310 310 311 312 312 312 311 312 311 309 311 310 311 311 309 312 314 312 315 316 318 319 321 321 322 324 327 330 326 329 339 343 353
311 311 309 309 309 309 308 308 307 307 308 309 310 310 310 311 311 311 312 311 313 311 308 309 310 307 307 311 313 312 313 315 315 317 319 320 323 327 329 327 326 330 348 347 346
311 311 311 311 311 310 309 309 309 309 309 309 308 309 309 310 311 312 321 318 318 317 316 312 311 307 309 310 312 311 314 315 317 317 318 319 321 324 325 325 327 333 352 346 346
309 310 310 310 310 310 310 309 309 309 309 308 307 308 309 310 310 312 319 313 318 319 317 314 308 307 306 310 310 314 312 314 315 316 318 320 321 324 327 324 327 340 332 343 347
306 307 307 308 308 308 308 309 309 309 308 306 305 306 309 311 309 310 312 310 316 318 317 309 307 305 306 306 309 311 312 312 314 314 313 319 320 325 325 324 325 329 336 339 341
304 305 305 306 306 307 307 307 308 309 309 309 308 308 309 311 308 308 309 310 313 317 316 309 306 305 305 306 308 308 310 312 312 312 312 314 316 324 324 323 324 327 340 338 339
303 303 304 304 304 305 305 305 306 306 309 310 309 309 308 307 308 309 309 311 312 316 316 314 308 307 306 308 306 308 311 310 311 311 312 315 321 325 322 323 324 324 330 340 335
303 302 302 303 303 304 305 304 303 305 306 309 309 308 308 306 304 306 307 308 309 309 310 313 310 307 307 307 308 308 309 309 310 311 312 317 316 316 323 323 323 325 326 332 335
303 303 302 303 303 303 303 301 303 304 305 306 307 308 308 306 308 307 308 308 309 309 310 313 309 308 309 308 307 306 307 309 313 310 314 317 316 319 321 323 323 323 324 325 327
304 303 303 303 303 303 302 302 301 303 305 306 306 307 306 307 308 309 309 308 309 311 311 314 308 308 305 307 307 308 308 309 310 312 314 317 323 322 325 324 324 322 323 324 326
304 303 303 303 304 303 303 302 299 302 305 307 307 306 306 307 308 310 312 310 310 314 316 316 314 310 308 308 309 308 309 310 309 310 318 317 321 324 324 324 324 322 322 324 325
304 304 304 304 304 304 303 303 301 304 308 306 308 307 306 307 309 309 310 313 312 316 316 315 318 310 307 308 309 310 310 310 310 310 315 317 322 324 323 323 322 322 322 322 324
303 303 304 304 305 304 302 302 303 303 305 306 307 308 308 309 310 310 310 314 312 316 318 318 316 311 310 309 310 310 308 311 312 322 323 323 324 325 324 323 323 322 322 323 323
303 304 305 305 306 302 302 302 301 302 308 306 309 311 309 311 312 310 309 314 315 315 319 316 315 315 313 310 310 310 309 311 316 323 324 325 324 322 323 322 321 321 320 320 322
305 304 305 304 305 304 304 303 303 303 307 305 312 311 309 310 310 311 311 310 317 317 317 317 316 318 315 312 310 310 310 310 312 319 323 325 325 322 323 323 321 319 319 319 319
305 305 304 305 304 305 304 303 303 309 308 305 312 312 311 311 310 311 313 314 316 317 317 316 316 317 316 313 310 311 310 310 312 314 320 320 321 319 318 319 318 317 319 319 319
304 304 305 305 307 306 305 302 307 307 305 306 310 310 311 312 313 312 314 318 322 320 319 316 317 314 315 313 311 310 308 308 310 317 318 316 321 318 317 317 318 319 318 319 320
304 305 306 307 308 307 305 306 308 306 307 307 308 310 314 314 312 312 314 321 321 318 317 317 317 317 313 311 310 309 307 308 313 317 316 319 321 318 317 317 316 317 317 318 319
304 305 307 308 309 308 306 307 307 308 307 310 311 315 318 315 314 312 315 322 321 316 317 316 316 315 315 311 310 308 309 308 312 317 315 315 316 317 324 324 323 315 317 319 319
304 303 305 309 308 306 308 310 310 310 310 311 318 315 315 315 317 316 321 320 322 317 314 314 315 316 315 313 311 310 309 311 312 321 321 320 325 322 326 327 326 316 317 322 332
304 303 307 308 308 310 311 313 312 311 312 316 317 315 316 315 315 317 323 320 320 320 314 314 316 318 317 314 310 307 308 312 314 313 316 320 318 326 325 326 324 319 329 334 334
305 305 307 309 310 310 309 312 310 313 313 315 314 315 316 316 316 320 321 322 318 318 314 313 316 313 316 313 312 309 310 314 314 320 322 319 318 325 323 327 320 330 334 332 330
306 305 308 308 311 310 311 312 313 313 313 310 311 313 315 315 317 318 323 321 317 316 314 313 312 315 314 314 312 309 310 313 315 318 324 320 319 326 324 328 326 332 332 329 323
302 306 305 305 309 310 311 313 314 312 316 318 318 314 313 317 316 322 325 324 322 314 323 317 316 316 314 315 314 311 311 318 317 319 323 323 327 326 327 329 327 326 330 325 322
302 307 308 310 310 310 312 311 315 316 315 317 318 319 320 322 322 323 324 323 320 327 317 314 320 324 324 324 323 321 314 313 317 318 320 327 328 327 326 325 327 324 324 321 319
304 306 307 308 309 310 311 313 315 316 317 318 320 320 319 319 320 321 320 319 320 316 321 317 323 325 324 324 325 327 326 326 325 325 328 330 330 327 327 328 328 323 323 322 320
302 305 306 309 309 310 311 313 315 315 316 315 318 319 318 317 316 316 315 315 317 318 321 321 320 320 325 323 323 323 323 328 329 329 329 331 328 326 329 329 325 321 320 319 318
Wind_Speed
18 18 18 18 18 17 17 18 18 17 18 18 18 17 17 18 20 21 16 17 12 8 12 7 4 14 9 3 3 4 2 6 7 8 4 1 3 5 4 3 4 2 2 10 20
20 20 20 20 20 20 20 20 20 20 18 18 18 17 16 18 20 21 33 32 22 17 14 15 4 7 5 6 4 5 5 8 6 5 4 5 3 5 6 6 3 4 9 24 26
21 22 22 22 22 22 23 23 22 20 19 17 16 17 16 14 7 9 15 9 17 27 12 10 5 7 5 4 5 4 5 5 2 7 4 4 4 4 4 4 2 3 3 13 21
22 22 22 24 23 24 24 23 22 20 18 17 16 15 15 4 7 8 4 26 23 25 18 6 5 7 7 8 5 3 6 5 6 3 2 4 3 3 3 5 2 5 3 8 13
24 24 24 25 26 26 26 26 25 24 20 18 16 14 11 8 13 13 16 26 9 16 17 5 6 6 7 7 1 5 3 6 6 7 3 4 6 3 5 2 7 6 9 8 12
24 24 24 24 24 25 26 26 26 27 25 20 17 15 13 24 30 33 28 19 5 19 12 7 8 5 5 4 18 6 11 7 6 6 5 6 6 5 3 7 5 10 3 7 8
25 25 25 25 25 25 26 27 28 27 24 22 18 17 13 20 27 16 12 12 3 4 5 21 9 7 5 2 4 7 3 2 16 5 5 7 8 8 7 7 7 7 7 1 6
27 27 27 26 26 26 26 27 29 29 25 23 20 20 15 11 32 41 44 35 25 25 18 13 11 4 3 2 3 8 3 5 5 9 5 9 20 7 8 9 9 7 7 8 4
28 29 28 27 27 27 29 31 32 33 29 24 21 12 13 12 21 34 29 22 15 19 20 9 7 5 3 4 3 4 4 5 1 8 5 11 2 5 8 6 9 8 6 7 6
29 29 30 28 27 28 30 32 38 25 9 8 12 4 8 7 8 9 21 33 11 9 7 9 5 5 4 6 15 4 5 5 9 6 8 10 4 4 3 5 6 9 7 6 9
29 30 30 29 27 28 29 17 6 2 4 7 10 12 5 5 7 4 8 19 14 8 12 11 10 16 18 3 2 7 7 7 7 8 7 8 6 9 8 5 7 7 8 7 6
32 32 31 31 31 29 24 3 7 4 12 15 17 25 30 16 15 20 8 8 10 16 13 6 22 12 12 10 9 4 3 5 4 7 8 4 7 9 9 6 7 9 8 9 6
36 36 35 34 31 17 4 9 10 13 5 8 17 12 13 14 17 25 6 11 9 17 23 13 8 13 13 15 14 11 6 4 5 3 3 3 6 4 5 4 5 7 8 8 11
40 40 38 33 17 4 9 12 6 7 4 6 5 0 5 6 9 21 22 12 12 24 20 8 13 23 17 19 17 16 9 5 5 4 4 3 5 4 4 8 9 11 9 8 9
42 40 38 23 14 3 7 10 7 3 3 3 6 9 8 6 5 5 24 16 12 16 15 14 17 25 22 22 16 5 12 8 4 3 4 2 2 7 5 9 17 11 9 10 10
43 42 28 7 5 10 8 3 2 3 6 3 6 5 7 6 13 8 15 13 9 15 13 12 20 17 15 12 14 5 8 4 3 4 1 5 5 6 7 8 13 8 10 13 14
46 34 13 4 4 3 6 2 2 4 6 3 6 12 14 12 6 11 17 16 8 14 20 10 18 10 17 12 10 11 8 2 2 1 5 8 4 12 9 16 13 16 13 9 9
46 18 5 9 9 8 1 3 5 9 11 13 14 18 7 4 4 12 5 13 7 6 18 15 10 19 18 12 9 14 9 5 5 5 4 5 6 6 6 9 11 14 15 6 9
35 14 5 4 7 7 3 2 4 5 7 12 18 3 4 5 3 8 3 12 8 13 9 11 8 10 9 7 10 6 8 8 7 3 4 4 7 6 7 12 16 10 7 8 8
21 11 7 5 2 5 1 6 5 7 12 14 4 1 5 9 5 7 10 17 10 13 3 8 10 17 11 6 14 11 9 6 3 5 3 2 3 3 12 17 15 4 8 9 12
8 4 5 4 2 1 3 5 9 15 12 4 3 1 2 4 4 1 4 13 17 15 4 3 6 8 13 10 7 4 5 6 6 4 5 2 5 0 7 11 15 5 10 18 17
6 4 9 8 3 1 3 7 9 11 3 4 4 5 2 1 1 4 8 3 18 11 7 1 4 5 7 5 8 4 7 6 5 4 3 4 6 3 5 13 8 7 13 16 18
6 3 5 4 6 8 7 9 6 11 9 0 2 1 6 3 4 5 2 2 18 12 7 3 3 4 5 5 2 9 4 6 5 4 7 6 6 4 8 16 13 6 15 16 16
3 4 4 3 3 9 10 5 11 13 12 12 2 5 1 1 4 2 3 5 3 5 9 7 3 4 6 5 6 7 7 9 8 5 6 5 3 5 13 14 12 4 10 18 16
4 3 2 7 9 17 11 5 12 9 5 10 4 12 5 1 2 1 4 4 5 11 4 5 4 3 3 7 5 4 7 14 7 6 7 9 6 2 4 8 9 6 11 16 16
3 3 3 6 10 15 7 8 16 17 5 10 8 11 8 4 4 2 4 5 3 6 4 4 3 2 7 9 9 14 11 7 4 6 7 17 10 4 4 9 8 8 13 13 12
5 6 3 6 8 9 9 15 16 18 6 8 16 6 6 5 5 2 2 2 1 2 4 4 4 3 2 5 2 7 6 3 2 2 9 7 10 14 4 5 6 11 14 13 12
Wind_Direction
333 330 328 328 328 326 320 310 304 302 307 308 308 308 308 307 303 300 260 247 249 269 225 242 230 212 190 232 209 124 148 208 197 152 230 276 12 298 272 221 16 17 333 307 134
331 328 324 321 320 320 318 317 316 310 297 302 303 304 308 312 311 276 268 277 257 242 222 226 249 142 156 187 209 168 191 204 190 185 173 288 46 311 14 333 30 326 45 70 75
323 320 319 315 311 310 310 311 312 310 307 296 297 302 305 314 305 246 87 51 302 227 210 207 176 140 167 154 202 193 216 195 234 206 176 268 298 266 3 27 334 340 56 75 73
328 323 318 315 312 309 306 305 305 305 303 304 298 292 297 296 260 170 123 5 360 186 206 172 137 157 155 193 204 210 199 170 210 205 190 206 245 253 139 151 110 100 85 96 72
331 325 319 315 312 309 307 303 299 296 294 294 304 289 290 223 243 214 291 329 2 168 197 182 134 141 173 170 280 200 209 190 219 252 223 222 264 268 126 139 120 69 82 109 118
333 330 326 322 318 315 310 307 301 294 290 284 289 298 274 254 259 269 293 302 240 180 199 206 187 181 182 207 193 212 191 235 254 253 254 190 252 169 125 129 111 102 93 120 142
336 329 324 322 319 315 312 307 300 296 288 276 279 280 248 248 263 264 269 250 193 196 206 213 216 188 170 161 206 238 40 288 234 238 249 160 247 214 194 123 112 125 128 158 161
332 329 325 320 318 315 311 306 304 295 286 276 275 277 269 236 260 255 250 257 266 266 263 256 226 237 200 290 36 177 148 229 257 196 246 158 252 223 225 141 142 126 143 144 209
327 325 322 319 317 314 310 310 299 290 281 274 268 247 269 264 239 251 243 233 239 244 240 234 170 192 212 131 5 208 157 175 217 194 178 199 206 198 215 207 151 157 180 161 187
326 324 322 320 318 315 316 313 306 294 285 220 223 197 249 235 231 242 226 217 208 188 209 200 183 168 189 166 208 166 143 153 180 190 188 231 226 261 224 189 197 165 181 218 170
328 324 322 320 314 313 316 331 352 359 228 203 183 229 294 220 291 299 158 174 205 206 183 178 188 203 198 133 261 169 150 177 184 208 175 222 196 216 222 218 236 191 175 199 195
328 324 321 319 315 314 306 225 220 12 285 232 245 231 240 270 291 271 210 161 194 193 154 168 213 188 181 192 204 222 168 178 189 202 169 207 238 224 222 232 197 235 180 186 166
330 327 323 319 318 309 219 232 290 323 293 273 228 240 249 218 239 260 237 199 197 188 188 187 158 178 179 177 204 222 155 160 142 161 81 131 284 207 256 232 262 233 235 188 182
329 326 324 324 311 307 283 289 294 328 277 271 194 298 87 344 256 248 224 213 202 196 183 226 169 182 190 195 186 205 160 179 152 109 192 115 267 269 221 264 227 242 239 222 200
326 328 328 324 288 245 270 297 323 152 281 211 169 157 180 215 355 264 184 214 235 168 169 192 182 185 193 195 182 189 150 185 167 149 124 47 360 271 246 259 265 254 235 230 207
327 328 329 334 234 272 308 312 122 273 255 235 150 231 233 234 271 282 166 203 214 176 189 190 181 183 192 177 178 166 121 67 67 97 303 189 175 223 221 231 261 262 240 227 225
329 332 328 242 238 301 332 95 312 217 323 244 334 339 330 292 160 181 157 191 177 162 179 196 181 161 171 170 163 162 137 134 230 110 215 184 192 254 265 265 240 263 257 222 196
333 337 304 271 309 285 104 51 245 268 281 306 329 331 299 315 110 156 150 189 206 135 161 174 186 180 176 184 177 186 156 147 141 165 197 163 236 250 238 274 279 252 259 199 159
340 347 335 299 313 196 102 189 248 311 322 335 319 319 359 12 69 134 210 195 165 160 153 174 203 148 172 140 149 173 184 170 107 321 106 215 282 330 13 342 344 265 185 134 134
331 330 309 317 351 131 94 252 245 237 285 296 280 334 358 351 54 134 196 189 190 196 166 159 176 174 175 152 188 173 166 165 21 132 188 287 292 261 346 336 340 348 112 109 121
348 2 344 334 166 257 277 264 278 278 276 291 313 349 330 2 10 93 249 151 204 210 173 125 131 170 164 197 153 121 126 64 119 138 164 123 269 121 291 326 332 162 144 125 118
343 347 348 346 0 292 283 288 290 291 314 271 273 221 229 117 284 227 223 211 181 194 170 355 118 126 178 154 172 141 156 140 134 204 95 139 271 227 276 13 27 142 122 124 122
337 287 330 355 357 346 314 300 293 311 306 234 270 285 198 170 184 256 298 7 173 178 149 175 36 87 82 61 122 180 182 133 111 95 174 136 261 301 32 29 10 130 127 112 111
6 343 323 12 332 330 323 319 330 317 312 348 349 171 22 237 207 342 260 63 58 141 157 92 88 123 165 171 151 179 165 158 136 132 159 207 212 331 49 33 8 49 125 115 113
23 342 15 313 341 335 332 297 324 340 337 346 14 22 1 68 114 349 3 20 46 130 79 108 94 83 17 38 108 107 173 172 171 186 156 188 132 329 34 57 352 276 114 108 111
24 339 333 288 298 334 344 333 340 335 306 334 337 340 30 57 28 16 323 36 48 324 83 21 116 144 30 13 105 79 44 92 120 134 80 114 97 187 32 57 311 153 113 105 105
316 279 279 293 323 344 335 335 336 340 310 319 338 326 21 353 327 296 278 99 122 29 92 70 106 64 338 328 351 38 1 1 118 91 139 165 155 136 172 185 139 102 105 108 102